Albany, NY

2:49 AM EDT on October 23, 2019 (GMT -0400)
Albany International

Weather History for KALB - August, 2019

Change the Weather History Date:

Saturday, August 24, 2019

  Actual Average Record
Temperature  
Mean Temperature 64 °F 69 °F  
Max Temperature 75 °F 79 °F 95 °F (1947)
Min Temperature 53 °F 59 °F 42 °F (1971)
Degree Days  
Heating Degree Days 1 1  
Month to date heating degree days 1 7  
Since 1 June heating degree days 28 64  
Since 1 July heating degree days 1 12  
Cooling Degree Days 0 5  
Month to date cooling degree days 196 148  
Year to date cooling degree days 702 514  
Since 1 June cooling degree days 680 484  
Growing Degree Days 14 (Base 50)    
Moisture  
Dew Point 52 °F    
Average Humidity 66    
Maximum Humidity 83    
Minimum Humidity 49    
Precipitation  
Precipitation 0.00 in 0.10 in 2.62 in (1893)
Month to date precipitation 4.08 2.77  
Year to date precipitation 28.94 25.46  
Sea Level Pressure  
Sea Level Pressure 30.21 in    
Wind  
Wind Speed 7 mph (North)    
Max Wind Speed 14 mph    
Max Gust Speed 28 mph    
Visibility 10 miles    
Events      
T = Trace of Precipitation, MM = Missing Value Source: NWS Daily Summary

Daily Weather History Graph

Daily Weather History Graph

Search for Another Location

Airport or City:

Astronomy

Aug. 24, 2019 Rise Set
Actual Time 6:11 AM EDT 7:43 PM EDT
Civil Twilight 5:41 AM EDT 8:12 PM EDT
Nautical Twilight 5:05 AM EDT 8:48 PM EDT
Astronomical Twilight 4:27 AM EDT 9:26 PM EDT
Moon No Moon Rise 3:00 PM EDT (8/24)
Length of Visible Light 14h 31m
Length of Day
13h 32m
Last Quarter, 39% of the Moon is Illuminated
Aug 24
Last Quarter
Aug 30
New
Sep 5
First Quarter
Sep 14
Full
Sep 21
Last Quarter

Hourly Weather History & Observations

Time (EDT) Temp. Dew Point Humidity Pressure Visibility Wind Dir Wind Speed Gust Speed Precip Events Conditions
12:51 AM 60.1 °F 50.0 °F 69% 30.13 in 10.0 mi NNW 4.6 mph - N/A   Partly Cloudy
1:51 AM 59.0 °F 51.1 °F 75% 30.14 in 10.0 mi Calm Calm - N/A   Partly Cloudy
2:51 AM 57.0 °F 50.0 °F 77% 30.14 in 10.0 mi Calm Calm - N/A   Partly Cloudy
3:51 AM 55.9 °F 50.0 °F 80% 30.14 in 10.0 mi ENE 3.5 mph - N/A   Clear
4:51 AM 55.0 °F 50.0 °F 83% 30.16 in 10.0 mi Calm Calm - N/A   Clear
5:51 AM 55.0 °F 50.0 °F 83% 30.17 in 10.0 mi North 3.5 mph - N/A   Partly Cloudy
6:51 AM 55.0 °F 50.0 °F 83% 30.20 in 10.0 mi Calm Calm - N/A   Partly Cloudy
7:51 AM 59.0 °F 51.1 °F 75% 30.22 in 10.0 mi North 4.6 mph - N/A   Partly Cloudy
8:51 AM 62.1 °F 51.1 °F 67% 30.23 in 10.0 mi NNW 8.1 mph - N/A   Partly Cloudy
9:51 AM 64.9 °F 52.0 °F 63% 30.23 in 10.0 mi North 9.2 mph - N/A   Partly Cloudy
10:51 AM 68.0 °F 53.1 °F 59% 30.23 in 10.0 mi North 9.2 mph - N/A   Scattered Clouds
11:51 AM 66.9 °F 52.0 °F 59% 30.23 in 10.0 mi NNE 9.2 mph - N/A   Mostly Cloudy
12:51 PM 70.0 °F 53.1 °F 55% 30.22 in 10.0 mi NNE 5.8 mph - N/A   Mostly Cloudy
1:51 PM 72.0 °F 53.1 °F 51% 30.22 in 10.0 mi North 12.7 mph - N/A   Scattered Clouds
2:51 PM 73.9 °F 53.1 °F 48% 30.22 in 10.0 mi North 11.5 mph - N/A   Scattered Clouds
3:51 PM 73.9 °F 53.1 °F 48% 30.21 in 10.0 mi NNW 11.5 mph - N/A   Scattered Clouds
4:51 PM 73.9 °F 53.1 °F 48% 30.21 in 10.0 mi NNE 10.4 mph - N/A   Scattered Clouds
5:51 PM 72.0 °F 54.0 °F 53% 30.22 in 10.0 mi NNE 6.9 mph - N/A   Mostly Cloudy
6:51 PM 71.1 °F 54.0 °F 55% 30.22 in 10.0 mi NNE 6.9 mph - N/A   Mostly Cloudy
7:51 PM 69.1 °F 54.0 °F 58% 30.24 in 10.0 mi NNE 9.2 mph - N/A   Mostly Cloudy
8:51 PM 68.0 °F 54.0 °F 61% 30.26 in 10.0 mi NNE 6.9 mph - N/A   Mostly Cloudy
9:51 PM 66.0 °F 53.1 °F 63% 30.28 in 10.0 mi NNE 8.1 mph - N/A   Mostly Cloudy
10:51 PM 66.0 °F 53.1 °F 63% 30.30 in 10.0 mi North 6.9 mph - N/A   Mostly Cloudy
11:51 PM 64.9 °F 54.0 °F 68% 30.30 in 10.0 mi North 9.2 mph - N/A   Overcast